This demonstration page uses our WeatherBlox Daily Observations layout. Learn more.

40.92945, -100.16068

Hourly Observations for June 5, 2018

Temp ( °F °C ) Dew Point ( °F °C ) Humidity (%) Winds ( mph kmh ) Pressure ( in mb ) Visibility ( mi km ) Precip ( " mm )
12:15 am 00:15 Clear 68 19.9 53 11.8 60 60 S 9 15 29.83 1010 10 16.0934 0 0
12:35 am 00:35 Clear 68 19.8 53 11.6 59 59 S 7 11 29.83 1010 10 16.0934 0 0
12:55 am 00:55 Clear 67 19.6 54 12 62 62 S 9 15 29.83 1010 10 16.0934 0 0
1:15 am 01:15 Clear 66 18.9 54 12.1 65 65 S 9 15 29.85 1011 10 16.0934 0 0
1:35 am 01:35 Clear 65 18.5 54 12.2 67 67 S 9 15 29.85 1011 10 16.0934 0 0
1:55 am 01:55 Clear 66 18.7 54 12.2 66 66 SSE 9 15 29.8 1009 10 16.0934 0 0
2:15 am 02:15 Clear 65 18.3 54 12.2 68 68 S 9 15 29.83 1010 10 16.0934 0 0
2:35 am 02:35 Clear 65 18.1 54 12.3 69 69 S 8 13 29.83 1010 10 16.0934 0 0
2:55 am 02:55 Clear 64 18 54 12.3 69 69 S 8 13 29.83 1010 10 16.0934 0 0
3:15 am 03:15 Clear 65 18.1 54 12.3 69 69 S 6 9 29.83 1010 10 16.0934 0 0
3:35 am 03:35 Clear 65 18.1 54 12.3 69 69 SSE 3 6 29.83 1010 10 16.0934 0 0
3:55 am 03:55 Clear 63 17.1 54 12.2 73 73 SE 6 9 29.83 1010 10 16.0934 0 0
4:15 am 04:15 Clear 64 17.5 54 12.4 72 72 SE 7 11 29.83 1010 10 16.0934 0 0
4:35 am 04:35 Clear 62 16.7 54 12.3 75 75 SSE 6 9 29.83 1010 10 16.0934 0 0
4:55 am 04:55 Clear 61 16 54 12.2 78 78 SSE 8 13 29.83 1010 10 16.0934 0 0
5:15 am 05:15 Clear 61 16 54 12.2 78 78 SSE 6 9 29.83 1010 10 16.0934 0 0
5:35 am 05:35 Clear 59 15.2 54 12.1 82 82 SE 3 6 29.85 1011 10 16.0934 0 0
5:55 am 05:55 Clear 58 14.4 54 12 86 86 SE 5 7 29.85 1011 10 16.0934 0 0
6:15 am 06:15 Sunny 59 15 53 11.8 81 81 Calm 29.85 1011 10 16.0934 0 0
6:35 am 06:35 Sunny 56 13.2 53 11.5 90 90 Calm 29.85 1011 10 16.0934 0 0
6:55 am 06:55 Sunny 60 15.3 55 12.7 85 85 Calm 29.83 1010 10 16.0934 0 0
7:15 am 07:15 Sunny 62 16.6 57 13.7 83 83 Calm 29.83 1010 10 16.0934 0 0
7:35 am 07:35 Sunny 64 17.9 58 14.2 79 79 SSE 5 7 29.83 1010 10 16.0934 0 0
7:55 am 07:55 Sunny 66 18.8 59 14.8 78 78 S 6 9 29.8 1009 10 16.0934 0 0
8:15 am 08:15 Sunny 67 19.7 59 15.1 75 75 S 9 15 29.8 1009 10 16.0934 0 0
8:35 am 08:35 Sunny 69 20.6 60 15.6 73 73 S 8 13 29.8 1009 10 16.0934 0 0
8:55 am 08:55 Sunny 71 21.6 60 15.7 69 69 S 9 15 29.8 1009 10 16.0934 0 0
9:15 am 09:15 Sunny 72 22.3 61 16 68 68 S 8 13 29.77 1008 10 16.0934 0 0
9:35 am 09:35 Sunny 73 23 62 16.4 66 66 SSW 6 9 29.77 1008 10 16.0934 0 0
9:55 am 09:55 Sunny 74 23.3 62 16.5 66 66 SSW 7 11 29.77 1008 10 16.0934 0 0
10:15 am 10:15 Sunny 75 24 63 17.2 66 66 SSW 8 13 29.77 1008 10 16.0934 0 0
10:35 am 10:35 Sunny 76 24.7 64 17.5 64 64 SSW 6 9 29.77 1008 10 16.0934 0 0
10:55 am 10:55 Sunny 78 25.5 64 17.9 63 63 SW 7 11 29.77 1008 10 16.0934 0 0
11:15 am 11:15 Sunny 79 26.1 65 18.3 62 62 SSW 6 9 29.74 1007 10 16.0934 0 0
11:35 am 11:35 Sunny 80 26.8 65 18.3 60 60 S 5 7 29.74 1007 10 16.0934 0 0
11:55 am 11:55 Sunny 82 27.7 65 18.6 58 58 S 8 13 29.74 1007 10 16.0934 0 0
12:15 pm 12:15 Sunny 83 28.6 66 19 56 56 S 9 15 29.74 1007 10 16.0934 0 0
12:35 pm 12:35 Sunny 85 29.2 64 17.9 51 51 S 10 17 29.68 1005 10 16.0934 0 0
12:55 pm 12:55 Sunny 85 29.5 63 17.4 48 48 S 15 24 29.68 1005 10 16.0934 0 0
1:15 pm 13:15 Sunny 86 29.9 63 17.2 46 46 S 14 22 29.68 1005 10 16.0934 0 0
1:35 pm 13:35 Sunny 87 30.5 62 16.8 44 44 S 15 24 29.65 1004 10 16.0934 0 0
1:55 pm 13:55 Sunny 88 31 64 17.7 45 45 S 15 24 29.65 1004 10 16.0934 0 0
2:15 pm 14:15 Sunny 88 31.1 63 17.4 44 44 SSW 16 26 29.65 1004 10 16.0934 0 0
2:35 pm 14:35 Sunny 89 31.7 63 17.1 42 42 S 13 20 29.65 1004 10 16.0934 0 0
2:55 pm 14:55 Sunny 90 32 62 16.5 39 39 S 16 26 29.65 1004 10 16.0934 0 0
3:15 pm 15:15 Sunny 90 32.4 63 17.2 40 40 SSW 13 20 29.62 1003 10 16.0934 0 0
3:35 pm 15:35 Sunny 91 32.5 62 16.8 39 39 S 14 22 29.62 1003 10 16.0934 0 0
3:55 pm 15:55 Sunny 91 32.8 63 17 39 39 S 15 24 29.59 1002 10 16.0934 0 0
4:15 pm 16:15 Sunny 91 32.8 61 16.3 37 37 S 12 19 29.59 1002 10 16.0934 0 0
4:35 pm 16:35 Sunny 91 33 60 15.8 36 36 S 14 22 29.59 1002 10 16.0934 0 0
4:55 pm 16:55 Sunny 91 33 61 16 36 36 S 13 20 29.59 1002 10 16.0934 0 0
5:15 pm 17:15 Sunny 91 33 61 16.1 36 36 S 10 17 29.59 1002 10 16.0934 0 0
5:35 pm 17:35 Sunny 91 32.7 62 16.4 38 38 S 12 19 29.59 1002 10 16.0934 0 0
5:55 pm 17:55 Sunny 91 32.7 61 16 37 37 S 14 22 29.59 1002 10 16.0934 0 0
6:15 pm 18:15 Sunny 91 32.6 60 15.7 36 36 S 13 20 29.59 1002 10 16.0934 0 0
6:35 pm 18:35 Sunny 90 32.4 61 16.3 38 38 SSE 15 24 29.59 1002 10 16.0934 0 0
6:55 pm 18:55 Sunny 90 32.1 62 16.6 39 39 SSE 10 17 29.59 1002 10 16.0934 0 0
7:15 pm 19:15 Sunny 89 31.7 61 16.1 39 39 SSE 13 20 29.62 1003 10 16.0934 0 0
7:35 pm 19:35 Sunny 88 31 61 15.9 40 40 SSE 10 17 29.62 1003 10 16.0934 0 0
7:55 pm 19:55 Sunny 86 30 61 16.3 44 44 SSE 12 19 29.62 1003 10 16.0934 0 0
8:15 pm 20:15 Sunny 84 29.1 62 16.8 47 47 SSE 8 13 29.62 1003 10 16.0934 0 0
8:35 pm 20:35 Sunny 82 28 64 17.5 53 53 SSE 8 13 29.65 1004 10 16.0934 0 0
8:55 pm 20:55 Sunny 81 27 64 17.5 56 56 SSE 7 11 29.65 1004 10 16.0934 0 0
9:15 pm 21:15 Clear 79 26.3 63 17.4 58 58 SSE 8 13 29.65 1004 10 16.0934 0 0
9:35 pm 21:35 Clear 78 25.8 63 17.3 59 59 SE 7 11 29.65 1004 10 16.0934 0 0
9:55 pm 21:55 Clear 77 24.9 63 17.1 62 62 SE 8 13 29.65 1004 10 16.0934 0 0
10:15 pm 22:15 Clear 76 24.7 63 17 62 62 SE 7 11 29.71 1006 10 16.0934 0 0
10:35 pm 22:35 Clear 75 23.7 63 17 66 66 SE 7 11 29.71 1006 10 16.0934 0 0
10:55 pm 22:55 Clear 76 24.2 63 17 64 64 SE 7 11 29.71 1006 10 16.0934 0 0
11:15 pm 23:15 Clear 74 23.5 63 17.1 67 67 SE 7 11 29.71 1006 10 16.0934 0 0
11:35 pm 23:35 Clear 75 23.8 63 17.2 67 67 SSE 10 17 29.71 1006 10 16.0934 0 0
11:55 pm 23:55 Clear 75 24 63 17.3 66 66 S 9 15 29.71 1006 10 16.0934 0 0

Powered by AerisWeather